Regional Weather Roundup
Issued by NWS Kansas City/Pleasant Hill, MO

Home | Current Version | Previous Version | Text Only | Print | Product List | Glossary On
Versions: 1 2 3 4 5 6 7 8 9 10 11 12 13 14 15 16 17 18 19 20 21 22 23 24 25 26 27 28 29 30 31 32 33 34 35 36 37 38 39 40 41 42 43 44 45 46 47 48 49 50
936
ASUS43 KEAX 231310
RWREAX

WEATHER ROUNDUP FOR EASTERN KANSAS AND NORTHWEST MISSOURI
NATIONAL WEATHER SERVICE KANSAS CITY/PLEASANT HILL MO
800 AM CDT SAT JUL 23 2016

KSZ040-057-103>105-MOZ028-029-037-043-231400-
...KANSAS CITY METROPOLITAN AREA...

CITY           SKY/WX    TMP DP  RH WIND       PRES   REMARKS
K.C. INTL      PTSUNNY   83  74  74 S10       29.96R
K.C. DOWNTOWN  CLOUDY    84  73  69 S7        29.95R HX  90
LEES SUMMIT    SUNNY     83  73  72 S12       29.98R
OLATHE - IXD   SUNNY     81  73  76 S10       29.98R
OLATHE - OJC   SUNNY     79  73  82 S7        29.98R
LAWRENCE       MOSUNNY   80  75  84 CALM      29.97R

$$

MOZ001>008-011>017-020>025-030>033-038>040-044>046-053-054-231400-
...NORTHERN AND CENTRAL MISSOURI...

CITY           SKY/WX    TMP DP  RH WIND       PRES   REMARKS
ST. JOSEPH     CLOUDY    81  73  76 S7        29.93S
MOSBY          CLOUDY    81  75  83 CALM      29.96R
WHITEMAN AFB   MOSUNNY   81  80  96 S8        29.96S HX  90
CLINTON        SUNNY     81  75  83 S3        29.99R
SEDALIA        SUNNY     83  76  79 S9        29.99S HX  91
WARSAW         NOT AVBL
CHILLICOTHE      N/A     81  77  88 S5        29.95S
KIRKSVILLE     CLOUDY    80  76  87 S9        29.97F

$$

MOZ041-047>049-056>058-063>065-088>090-097-231400-
...EASTERN AND SOUTHERN MISSOURI...

CITY           SKY/WX    TMP DP  RH WIND       PRES   REMARKS
ST. LOUIS INTL MOSUNNY   82  72  71 S7        30.01R
SPIRIT OF STL  MOSUNNY   80  75  84 SE3       29.99R
COLUMBIA       SUNNY     80  76  87 S6        29.99S
JEFFERSON CITY MOSUNNY   79  76  90 SE3       29.98S
ROLLA          SUNNY     80  70  71 SW9       30.01R
OSAGE BEACH    SUNNY     79  75  87 SE3       30.01R FOG
SPRINGFIELD    SUNNY     81  75  82 S6        30.02R
BRANSON        SUNNY     81  75  83 CALM      30.04R
JOPLIN         SUNNY     83  74  74 S7        30.00R
WEST PLAINS    MOSUNNY   80  75  84 CALM      30.05S

$$

IAZ060-094-KSZ022-034>040-054-083-096-NEZ052-066-093-231400-
...KANSAS...SOUTHEAST NEBRASKA AND IOWA...

CITY           SKY/WX    TMP DP  RH WIND       PRES   REMARKS
TOPEKA           N/A     82  71  69 S6        29.96R
MANHATTAN      CLOUDY    80  71  74 S6        29.93F
EMPORIA        CLOUDY    78  71  79 SE3       29.98R
CHANUTE        SUNNY     80  73  79 S6        29.97R
WICHITA        PTSUNNY   77  68  73 S5        29.96R
OMAHA          CLOUDY    83  69  62 S10       29.84F
LINCOLN        CLOUDY    80  71  74 S12       29.86F
FALLS CITY     CLOUDY    80  73  79 S8        29.92S
LAMONI         CLOUDY    78  76  93 S7        29.93R
DES MOINES     CLOUDY    82  76  81 S10       29.89S

$$





USA.gov is the U.S. government's official web portal to all federal, state and local government web resources and services.